Location: San Martino di Castrozza
(46.2667°N, 11.8000°E)
Time: 03:39:30
(UTC+00:00)

USA 234 - Pass Details

Date: 23 April 2021
Orbit: 1102 x 1105 km, 123.0° (Epoch: 18 April)

Event Time Altitude Azimuth Distance (km) Brightness Sun altitude
Rises 02:52:48 0° 52° (NE) 3,928 8.2 -13.0°
Reaches altitude 10° 02:55:18 10° 50° (NE) 2,968 7.0 -12.7°
Maximum altitude 03:01:48 69° 329° (NNW) 1,172 3.4 -11.7°
Enters shadow 03:07:40 13° 248° (WSW) 2,729 4.7 -10.9°
